www.pogodaiklimat.ru

Погода и климат >> Архив погоды >> Бахрейн >> Бахрейн


АРХИВ ПОГОДЫ в Бахрейне

Время (UTC), дата Ветер
(напр.,м/с)
 
Видим.   Явления Облачность Т
(С)
Тd
(С)
f
(%)
Тe
(С)
Тes
(С)
Комфортность P
(гПа)
Po
(гПа)
Тmin
(С)
Tmax
(С)
R
(мм)
R24
(мм)
S
(см)
12 12.08 С 5 14 км 6/0
[Ac trans]
+38.2 +18.0 31 +42 +45 опасность
перегрева
995.1 994.9
15 12.08 В 2 14 км 5/0
[Ac trans]
+35.5 +23.4 50 +46 +46 опасность
перегрева
995.1 994.9
18 12.08 Ю 2 14 км ясно +35.1 +25.5 58 +50 +50 опасность
перегрева
996.2 996.0 +41.5
21 12.08 ЮВ 2 12 км 6/0
[Ci fib]
+35.0 +18.9 39 +40 +40 очень
душно
996.1 995.9
00 13.08 В 3 12 км 5/0
[Ac trans]
+32.5 +26.2 69 +48 +48 опасность
перегрева
996.2 996.0
03 13.08 ЮВ 2 12 км 9/0
[Ac cast]
+33.6 +22.0 51 +42 +43 опасность
перегрева
996.8 996.6
06 13.08 Ю 2 14 км 5/0
[Ac trans]
+37.5 +23.5 45 +48 +57 опасность
перегрева
997.8 997.6 +32.2
09 13.08 В 6 16 км 8/0
[Ac trans]
+36.4 +27.9 62 +57 +62 опасность
перегрева
997.8 997.6
12 13.08 В 6 14 км 4/0
[Ac trans]
+36.4 +25.9 55 +52 +54 опасность
перегрева
997.1 996.9
15 13.08 В 6 14 км 8/0
[Ac As]
+35.2 +27.6 65 +55 +55 опасность
перегрева
997.1 996.9
18 13.08 В 5 9000 м мгла 8/0
[Ac trans]
+33.4 +30.8 86 +63 +63 опасность
перегрева
998.4 998.2 +38.8
21 13.08 В 3 7000 м мгла 9/0
[Ac trans]
+32.7 +30.5 88 +61 +61 опасность
перегрева
998.0 997.8
00 14.08 В 3 4000 м мгла 9/4 240 м
[St Ac trans]
+32.4 +30.0 87 +59 +59 опасность
перегрева
997.9 997.7
03 14.08 ЮВ 3 4000 м мгла 9/0
[Ac trans]
+32.3 +29.3 84 +56 +57 опасность
перегрева
999.6 999.4
06 14.08 СЗ 3-8
{9}
7000 м мгла 3/0
[Ac trans]
+36.0 +27.2 61 +55 +64 опасность
перегрева
1000.8 1000.6 +32.1 205
09 14.08 С 3 12 км ясно +38.7 +25.7 48 +53 +72 опасность
перегрева
1000.3 1000.1
12 14.08 СВ 4 9000 м мгла 1/0
[Ci fib]
+36.3 +27.2 60 +55 +62 опасность
перегрева
999.0 998.8
15 14.08 В 4 7000 м мгла ясно +33.8 +29.3 77 +58 +58 опасность
перегрева
998.9 998.7
21 14.08 В 2 6000 м мгла ясно +32.6 +29.8 85 +58 +58 опасность
перегрева
999.9 999.7
00 15.08 З 2 5000 м мгла 5/0
[Ac trans]
+32.6 +30.0 86 +59 +59 опасность
перегрева
999.5 999.3
03 15.08 ЮЗ 2 6000 м мгла 1/0
[Ac trans]
+32.9 +29.1 81 +57 +58 опасность
перегрева
1000.0 999.8
06 15.08 СЗ 5 6000 м мгла ясно +35.0 +27.6 66 +55 +63 опасность
перегрева
1002.1 1001.9 +32.4
09 15.08 С 3 9000 м мгла ясно +38.9 +26.6 50 +55 +74 опасность
перегрева
1001.2 1001.0
12 15.08 СВ 4 10 км мгла ясно +37.6 +25.4 50 +52 +58 опасность
перегрева
999.4 999.2
15 15.08 СВ 4 10 км мгла ясно +35.7 +25.8 57 +51 +51 опасность
перегрева
999.2 999.0
18 15.08 В 4 6000 м мгла ясно +33.8 +28.6 74 +56 +56 опасность
перегрева
1000.7 1000.5 +39.8
21 15.08 С 3 6000 м мгла ясно +33.2 +29.2 80 +58 +58 опасность
перегрева
1001.0 1000.8
00 16.08 З 2 6000 м мгла 3/0
[Ac trans]
+33.3 +28.2 75 +55 +55 опасность
перегрева
999.9 999.7
03 16.08 З 5 4000 м мгла 8/0
[Ac trans]
+33.1 +28.9 79 +57 +57 опасность
перегрева
1000.7 1000.5
06 16.08 СЗ 6 7000 м мгла 4/0
[Ci fib]
+37.0 +23.5 46 +47 +52 опасность
перегрева
1001.3 1001.1 +32.7
09 16.08 СЗ 10 12 км ясно +39.0 +22.9 40 +48 +49 опасность
перегрева
1000.5 1000.3
12 16.08 С 7 12 км ясно +38.5 +23.3 42 +48 +51 опасность
перегрева
999.5 999.3
15 16.08 СЗ 7 12 км 3/0
[Ac trans]
+35.9 +24.8 53 +49 +49 опасность
перегрева
998.7 998.5
18 16.08 С 4 12 км 4/0
[Ac trans]
+35.8 +23.0 48 +46 +46 опасность
перегрева
999.6 999.4 +39.5
21 16.08 СЗ 3 12 км ясно +34.1 +26.0 63 +50 +50 опасность
перегрева
999.1 998.9
00 17.08 СЗ 5 12 км 1/0
[Ac trans]
+33.6 +25.5 63 +48 +48 опасность
перегрева
998.5 998.3
03 17.08 СЗ 7 16 км 3/0
[Ac trans]
+34.2 +23.8 55 +46 +46 опасность
перегрева
999.2 999.0
06 17.08 СЗ 9 20 км ясно +37.2 +21.3 40 +44 +46 опасность
перегрева
1000.0 999.8 +33.4
09 17.08 СЗ 8 20 км ясно +36.7 +24.5 50 +49 +53 опасность
перегрева
1000.0 999.8
12 17.08 СЗ 9 14 км ясно +36.6 +24.4 50 +49 +50 опасность
перегрева
998.6 998.4
15 17.08 СЗ 6 14 км ясно +36.4 +19.3 37 +41 +41 опасность
перегрева
998.4 998.2
18 17.08 СЗ 3 16 км ясно +34.5 +21.5 47 +42 +42 опасность
перегрева
999.0 998.8 +37.9
21 17.08 З 4 16 км ясно +34.0 +23.0 53 +44 +44 опасность
перегрева
999.2 999.0
00 18.08 З 4 16 км ясно +33.7 +21.8 50 +42 +42 опасность
перегрева
999.1 998.9
03 18.08 СЗ 4 14 км 1/0
[Ac trans]
+32.8 +24.2 61 +45 +46 опасность
перегрева
1000.1 999.9
06 18.08 СЗ 6 16 км 1/0
[Ac trans]
+37.2 +20.9 39 +44 +49 опасность
перегрева
1001.5 1001.3 +32.4
09 18.08 С 5 14 км 3/0
[Ac trans]
+39.1 +19.8 33 +44 +54 опасность
перегрева
1001.4 1001.2
12 18.08 С 5 14 км 3/0
[Ac trans]
+38.1 +22.5 41 +47 +51 опасность
перегрева
1000.9 1000.7
15 18.08 С 5 14 км 3/0
[Ac trans]
+34.8 +25.3 58 +49 +49 опасность
перегрева
1000.9 1000.7
18 18.08 СВ 4 12 км 3/0
[Ac trans]
+34.3 +25.1 59 +48 +48 опасность
перегрева
1002.8 1002.6 +39.7
21 18.08 С 2 14 км ясно +33.1 +24.8 62 +46 +46 опасность
перегрева
1001.7 1001.5
00 19.08 З 3 14 км ясно +32.8 +24.7 62 +46 +46 опасность
перегрева
1001.3 1001.1
03 19.08 З 3 16 км 3/0
[Ci fib]
+31.9 +23.6 62 +43 +44 опасность
перегрева
1002.6 1002.4
06 19.08 С 4 14 км 3/0
[Ci fib]
+35.5 +25.0 55 +49 +58 опасность
перегрева
1003.9 1003.7 +31.5
09 19.08 С 5 14 км ясно +36.8 +25.3 52 +51 +61 опасность
перегрева
1003.9 1003.7

 

Местоположение метеостанции Бахрейн (Бахрейн): широта 26.27 долгота 50.65 высота над уровнем моря 2 м.

В архиве по умолчанию представлена погода в Бахрейне за последнюю неделю. Архивные данные за месяц целиком и за предыдущие месяцы, начиная с января 2011 года, Вы можете получить, выбрав интересующий диапазон дат из раскрывающегося списка и нажав кнопку "Ввод!".


*Определитесь, кто Вы:
робот инопланетянин человек

Внимание! Время в таблицах - всемирное. Для получения местного времени необходимо прибавить поправку, которая равна 4 ч.

Смотрите также архив погоды в соседних городах и на ближайших метеорологических станциях:

Погода в Дахране (Саудовская Аравия) (48 км)
Погода в Эд-Даммаме (Саудовская Аравия) (85 км)
Погода в Духане (Катар) (97 км)
Погода в Дохе (Катар) (146 км)
Погода в Аэропорту Хамад (Катар) (147 км)
Погода в Эль-Хуфуфе (Саудовская Аравия) (159 км)
Погода в Доха порту (Катар) (166 км)
Погода в Абу Самба (Катар) (170 км)
Погода в Бендер-Дейере (Иран) (215 км)
Погода в Бушире (Иран) (299 км)

Пояснения к столбцам:

Ветер - указаны скорость ветра в м/с - средняя за 10 мин, порывы в срок и между сроками (в фигурных скобках) и направление, откуда дует ветер: С - северный, СВ - северо-восточный, В - восточный, ЮВ - юго-восточный, Ю - южный, ЮЗ - юго-западный, З - западный, СЗ - северо-западный.
Видимость - горизонтальная дальность видимости в метрах или километрах. При видимости от 1 до 10 км при отсутствии осадков обычно наблюдается дымка, при ухудшении видимости до 1 км и менее - туман. В сухую погоду видимость может ухудшаться дымом, пылью или мглою.
Явления - указаны атмосферные явления, наблюдавшиеся в срок или в последний час перед сроком; фигурными скобками обозначены явления, наблюдавшиеся между сроками (за 1-3 часа до срока); квадратными скобками обозначены град или гололедные отложения с указанием их диаметра в мм.
Облачность - указаны через наклонную черту общая и нижняя облачность в баллах и высота нижней границы облаков в метрах; квадратными скобками обозначены формы облаков: Ci - перистые, Cs - перисто-слоистые, Cc - перисто-кучевые, Ac - высококучевые, As - высокослоистые, Sc - слоисто-кучевые, Ns - слоисто-дождевые, Cu - кучевые, Cb - кучево-дождевые. Подробнее классификацию облаков см. в Атласе облаков (PDF).
T - Температура воздуха - температура, измеренная на высоте 2 м над землей.
Td - Температура точки росы - температура, при понижении до которой содержащийся в воздухе водяной пар достигнет насыщения.
f - Относительная влажность воздуха - влажноcть воздуха, измеренная на высоте 2 м над землей.
Te - Эффективная температура - температура, которую ощущает одетый по сезону человек в тени. Характеристика душности погоды. При расчете учитывается влияние влажности воздуха и скорости ветра на теплоощущения человека.
Tes - Эффективная температура на солнце - температура, которую ощущает человек, с поправкой на солнечный нагрев. Характеристика знойности погоды. Зависит от высоты солнца над горизонтом, облачности и скорости ветра. Ночью, в пасмурную погоду, а также при ветре 12 м/с и более поправка равна нулю.
P - Атмосферное давление - приведенное к уровню моря атмосферное давление.
Po - Атмосферное давление - измеренное на уровне метеостанции атмосферное давление.
Tmin - Минимальная температура - минимум температуры воздуха на высоте 2 м над землей.
Tmax - Максимальная температура - максимум температуры воздуха на высоте 2 м над землей.
R - Количество осадков - Количество выпавших осадков за период времени, мм. При наведении курсора мыши на число - период времени, за который выпало указанное количество осадков.
R24 - Количество осадков - Количество выпавших осадков за 24 часа, мм.
S - Снежный покров - Высота снежного покрова, см. При наведении курсора мыши на число - состояние снежного покрова и степень покрытия местности в баллах.